Regional Weather Roundup
Issued by NWS Northern Indiana

Home | Current Version | Previous Version | Graphics & Text | Print | Product List | Glossary On
Versions: 1 2 3 4 5 6 7 8 9 10 11 12 13 14 15 16 17 18 19 20 21 22 23 24 25 26 27 28 29 30 31 32 33 34 35 36 37 38 39 40 41 42 43 44 45 46 47 48 49 50
000
ASUS43 KIWX 031010
RWRIWX

KIWX WEATHER ROUNDUP
NATIONAL WEATHER SERVICE NORTHERN INDIANA
600 AM EDT FRI JUL 03 2015

NOTE: "FAIR" INDICATES FEW OR NO CLOUDS BELOW 12,000 FEET WITH NO
SIGNIFICANT WEATHER AND/OR OBSTRUCTIONS TO VISIBILITY.

* THESE STATIONS ARE NOT UNDER NWS QUALITY CONTROL. THEY ALSO MAY NOT
  REPORT WEATHER SUCH AS PRECIPITATION OR FOG.

INZ001>027-031100-
NORTHERN INDIANA

CITY           SKY/WX    TMP DP  RH WIND       PRES   REMARKS
GARY*          CLOUDY    59  59 100 CALM      29.96R
VALPARAISO     CLOUDY    58  55  90 NE5       29.96R
MICHIGAN CITY* CLOUDY    54  54 100 CALM      29.96S
LAPORTE*       CLOUDY    59  57  96 CALM      29.96S
KNOX*          CLOUDY    55  55 100 CALM      29.95R
SOUTH BEND     MOCLDY    59  54  83 NE3       29.97F
GOSHEN         MOCLDY    57  54  89 E5        29.96F
MONTICELLO*    CLOUDY    61  57  87 NE7       29.92S
LOGANSPORT*    MOCLDY    59  52  77 E5        29.94S
ROCHESTER*     MOCLDY    61  55  82 CALM      29.95S
WARSAW*          N/A     55  54  94 E5        29.95S
ANGOLA*          N/A     57  54  88 E6        29.97F
FORT WAYNE     MOCLDY    59  55  87 E9        29.95F
HUNTINGTON*    PTCLDY    58  53  85 E5        29.95R
PERU/GRISSOM   CLOUDY    62  55  77 E7        29.93R
MARION*        MOCLDY    60  53  80 E8        29.94S

$$
INZ028>050-031100-
CENTRAL INDIANA

CITY           SKY/WX    TMP DP  RH WIND       PRES   REMARKS
LAFAYETTE      CLOUDY    62  56  80 NE13      29.91S
KOKOMO*        MOCLDY    61  45  55 E6        29.93S
MUNCIE*        MOCLDY    61  54  77 E7        29.93S
INDIANAPOLIS   CLOUDY    63  59  87 NE14      29.88S

$$
MIZ043>046-050>051-056>058-064>065-071>073-077>080-031100-
SOUTHWEST LOWER MICHIGAN

CITY           SKY/WX    TMP DP  RH WIND       PRES   REMARKS
BATTLE CREEK   PTCLDY    55  50  83 CALM      29.99S
BENTON HARBOR  MOCLDY    53  50  89 CALM      29.97S
COLDWATER*     PTCLDY    53  52  97 CALM      29.98S
HILLSDALE*     PTCLDY    53  52  97 E5        29.99S
HOLLAND        PTCLDY    53  48  83 CALM      29.99S
GRAND RAPIDS   PTCLDY    50  48  93 NE5       30.00S
KALAMAZOO      PTCLDY    53  50  89 CALM      29.99S
STURGIS*       PTCLDY    55  54  94 E5        29.97S
THREE RIVERS*  FAIR      54  51  91 CALM      29.98S

$$
OHZ001>008-015>018-024>025-031100-
NORTHWEST OHIO

CITY           SKY/WX    TMP DP  RH WIND       PRES   REMARKS
DEFIANCE       PTCLDY    57  55  93 NE3       29.97S FOG
FINDLAY        PTCLDY    60  55  83 E7        29.95S
TOLEDO EXPRESS PTCLDY    53  52  96 CALM      29.97S
TOLEDO METCALF CLEAR     58  53  84 NE3       29.98S
LIMA           CLEAR     57  55  93 E6        29.95F

$$
AND FOR LAKE MICHIGAN COASTAL AND OPEN LAKE BUOY OBSERVATIONS

STATION/POSITION TEMP    WIND        PRES    VSBY  WAVE
                 AIR SEA DIR/SP/G                  HT/PER
                 (F)     (DEG/KT/KT) (MB)    (MI)  (FT/S)
CALUMET HARBOR    62      60/  5/  6   N/A
MICHIGAN CITY     60     100/  7/ 10   N/A
BURNS HARBOR      60      70/  6/  8 1014.9F
SAINT JOSEPH      57      CALM  /  2   N/A
4 MI NW BRIDGMAN  60 61                N/A           2/ 4
MICHIGAN CITY     61 63   90/  6/  8   N/A           2/ 5

$$
&&



USA.gov is the U.S. government's official web portal to all federal, state and local government web resources and services.